Regional Weather Roundup
Issued by NWS

Home | Current Version | Previous Version | Text Only | Print | Product List | Glossary On
Versions: 1 2 3 4 5 6 7 8 9 10 11 12 13 14 15 16 17 18 19 20 21 22 23 24 25 26 27 28 29 30 31 32 33 34 35 36 37 38 39 40 41 42 43 44 45 46 47 48 49 50
000
ASUS43 KTOP 220059
RWRKS

WEATHER ROUNDUP FOR KANSAS
NATIONAL WEATHER SERVICE GOODLAND KS
700 PM CST SAT JAN 21 2017

NOTE:  "FAIR" INDICATES FEW OR NO CLOUDS BELOW 12,000 FEET WITH NO
SIGNIFICANT WEATHER AND/OR OBSTRUCTIONS TO VISIBILITY.

KSZ001>006-013>018-027>032-041>047-220200-
NORTHWEST KANSAS

CITY           SKY/WX    TMP DP  RH WIND       PRES   REMARKS
GOODLAND       CLOUDY    33  28  81 N8        29.47R
HAYS           PTCLDY    42  36  79 NE10      29.45R
HILL CITY      CLEAR     42  36  79 NE8       29.47R
RUSSELL        PTCLDY    43  36  76 NE8       29.43R
$$

KSZ061>065-074>080-084>089-220200-
SOUTHWEST KANSAS

CITY           SKY/WX    TMP DP  RH WIND       PRES   REMARKS
DODGE CITY     CLOUDY    45  37  73 NE7       29.40R
ELKHART          N/A     39  32  76 N10         N/A  WCI  32
GARDEN CITY    LGT RAIN  44  38  79 NE13      29.39R
GREAT BEND     MOCLDY    45  38  76 E7        29.43R
LIBERAL        CLOUDY    46  36  66 E12       29.35R
$$

KSZ066>073-081>083-090>101-220200-
SOUTHEAST KANSAS

CITY           SKY/WX    TMP DP  RH WIND       PRES   REMARKS
CHANUTE        CLOUDY    51  40  65 E8        29.46F
COFFEYVILLE    CLOUDY    50  45  83 E10       29.43F
HUTCHINSON     CLOUDY    47  41  80 E12       29.42S
MEDICINE LODGE   N/A     44  38  79 E7        29.39R
NEWTON         LGT RAIN  45  43  93 E15       29.43F
PARSONS        LGT RAIN  50  43  77 E5        29.45F
WICHITA INTL   CLOUDY    47  43  86 E10       29.42S
WICHITA JABRA  CLOUDY    46  44  93 E7        29.44R
WINFIELD       CLOUDY    49  39  68 NE6       29.43R
$$

KSZ007>012-019>026-033>040-048>060-102>105-220200-
NORTHEAST KANSAS

CITY           SKY/WX    TMP DP  RH WIND       PRES   REMARKS
CONCORDIA      CLOUDY    46  39  76 E3        29.49R
EMPORIA        LGT RAIN  45  44  97 N7        29.48F
LAWRENCE       LGT RAIN  47  46  97 E3        29.52R
MANHATTAN      CLOUDY    51  39  63 S3        29.49R
OLATHE IND     LGT RAIN  47  44  90 NE5       29.51S
OLATHE EXE     LGT RAIN  47  44  90 NE3       29.51R
SALINA         MOCLDY    46  39  76 NE6       29.47R
TOPEKA BILLARD LGT RAIN  50  43  77 CALM      29.51R
TOPEKA FORBES  LGT RAIN  49  45  86 CALM      29.51R
$$




USA.gov is the U.S. government's official web portal to all federal, state and local government web resources and services.